Menu Close Menu
Station Historical Data
Daily Summary for October 20, 2017 Units:  Metric    English   Both
« Previous Day
Next Day »
Daily Weekly Monthly Yearly Custom
  High: Low: Average:
Temperature: 25 °C 7.1 °C 14.6 °C
Dew Point: 11.9 °C 4.8 °C 8.6 °C
Humidity: 94% 28% 72%
Wind Speed: 11.3km/h 4.8km/h 7.1km/h
Wind Gust: 11.3km/h - -
Wind- - SW
Pressure: 1027.3 hPa 1022.6 hPa -
Precipitation: 0 mm    
Historical Graphs
 
 
Tabular Data for October 20, 2017
Time Temperature Dew Point Pressure Wind Wind Speed Wind Gust Humidity Rainfall Rate (Hourly) solar Conditions
00:01 10.4 °C 8.7 °C 1025.3 hPa North 5.6 km/h 5.6 km/h 89% 0 mm WeatherDisplay:10.37 W/m2 CLR
00:06 10.4 °C 8.7 °C 1025.3 hPa North 5.6 km/h 5.6 km/h 89% 0 mm WeatherDisplay:10.37 W/m2 CLR
00:11 10.3 °C 8.6 °C 1025.3 hPa North 5.6 km/h 5.6 km/h 89% 0 mm WeatherDisplay:10.37 W/m2 CLR
00:16 10.3 °C 8.6 °C 1025.3 hPa North 5.6 km/h 5.6 km/h 89% 0 mm WeatherDisplay:10.37 W/m2 CLR
00:21 10.3 °C 8.7 °C 1025.6 hPa North 5.6 km/h 5.6 km/h 90% 0 mm WeatherDisplay:10.37 W/m2 CLR
00:26 10.3 °C 8.7 °C 1025.6 hPa North 5.6 km/h 5.6 km/h 90% 0 mm WeatherDisplay:10.37 W/m2 CLR
00:31 10.2 °C 8.7 °C 1025.6 hPa North 5.6 km/h 5.6 km/h 90% 0 mm WeatherDisplay:10.37 W/m2 CLR
00:36 10.2 °C 8.6 °C 1025.6 hPa North 5.6 km/h 5.6 km/h 90% 0 mm WeatherDisplay:10.37 W/m2 CLR
00:41 10.1 °C 8.6 °C 1025.6 hPa North 5.6 km/h 5.6 km/h 90% 0 mm WeatherDisplay:10.37 W/m2 CLR
00:46 10 °C 8.4 °C 1025.6 hPa North 5.6 km/h 5.6 km/h 90% 0 mm WeatherDisplay:10.37 W/m2 CLR
00:51 9.9 °C 8.4 °C 1025.3 hPa North 5.6 km/h 5.6 km/h 90% 0 mm WeatherDisplay:10.37 W/m2 CLR
00:56 9.9 °C 8.4 °C 1025.3 hPa North 5.6 km/h 5.6 km/h 90% 0 mm WeatherDisplay:10.37 W/m2 CLR
01:01 9.9 °C 8.3 °C 1025.3 hPa North 5.6 km/h 5.6 km/h 90% 0 mm WeatherDisplay:10.37 W/m2 CLR
01:06 9.8 °C 8.3 °C 1025.6 hPa North 5.6 km/h 5.6 km/h 90% 0 mm WeatherDisplay:10.37 W/m2 CLR
01:07 9.8 °C 8.3 °C 1025.3 hPa North 5.6 km/h 5.6 km/h 90% 0 mm WeatherDisplay:10.37 W/m2 CLR
01:12 9.8 °C 8.2 °C 1025.3 hPa North 5.6 km/h 5.6 km/h 90% 0 mm WeatherDisplay:10.37 W/m2 CLR
01:17 9.7 °C 8.2 °C 1025.3 hPa North 5.6 km/h 5.6 km/h 90% 0 mm WeatherDisplay:10.37 W/m2 CLR
01:22 9.7 °C 8.2 °C 1025.6 hPa North 5.6 km/h 5.6 km/h 90% 0 mm WeatherDisplay:10.37 W/m2 CLR
01:27 9.7 °C 8.1 °C 1025.6 hPa North 5.6 km/h 5.6 km/h 90% 0 mm WeatherDisplay:10.37 W/m2 CLR
01:32 9.6 °C 8.1 °C 1025.6 hPa North 5.6 km/h 5.6 km/h 90% 0 mm WeatherDisplay:10.37 W/m2 CLR
01:37 9.6 °C 8.1 °C 1025.3 hPa North 5.6 km/h 5.6 km/h 90% 0 mm WeatherDisplay:10.37 W/m2 CLR
01:42 9.6 °C 8.2 °C 1025.3 hPa North 5.6 km/h 5.6 km/h 91% 0 mm WeatherDisplay:10.37 W/m2 CLR
01:47 9.6 °C 8.2 °C 1025.3 hPa North 5.6 km/h 5.6 km/h 91% 0 mm WeatherDisplay:10.37 W/m2 CLR
01:52 9.6 °C 8.2 °C 1025.3 hPa North 5.6 km/h 5.6 km/h 91% 0 mm WeatherDisplay:10.37 W/m2 CLR
01:57 9.5 °C 8.1 °C 1025.3 hPa North 5.6 km/h 5.6 km/h 91% 0 mm WeatherDisplay:10.37 W/m2 CLR
02:02 9.5 °C 8.1 °C 1025.3 hPa North 5.6 km/h 5.6 km/h 91% 0 mm WeatherDisplay:10.37 W/m2 CLR
02:03 9.5 °C 8.1 °C 1025.3 hPa North 5.6 km/h 5.6 km/h 91% 0 mm WeatherDisplay:10.37 W/m2 CLR
02:08 9.5 °C 8.1 °C 1025.3 hPa North 5.6 km/h 5.6 km/h 91% 0 mm WeatherDisplay:10.37 W/m2 CLR
02:13 9.4 °C 8.1 °C 1025.3 hPa North 5.6 km/h 5.6 km/h 91% 0 mm WeatherDisplay:10.37 W/m2 CLR
02:18 9.4 °C 8 °C 1025.3 hPa North 5.6 km/h 5.6 km/h 91% 0 mm WeatherDisplay:10.37 W/m2 CLR
02:23 9.4 °C 8 °C 1025.3 hPa North 5.6 km/h 5.6 km/h 91% 0 mm WeatherDisplay:10.37 W/m2 CLR
02:28 9.3 °C 7.9 °C 1025.6 hPa North 5.6 km/h 5.6 km/h 91% 0 mm WeatherDisplay:10.37 W/m2 CLR
02:33 9.2 °C 7.8 °C 1025.3 hPa North 5.6 km/h 5.6 km/h 91% 0 mm WeatherDisplay:10.37 W/m2 CLR
02:38 9.2 °C 7.8 °C 1025.6 hPa North 5.6 km/h 5.6 km/h 91% 0 mm WeatherDisplay:10.37 W/m2 CLR
02:43 9.1 °C 7.7 °C 1025.6 hPa North 5.6 km/h 5.6 km/h 91% 0 mm WeatherDisplay:10.37 W/m2 CLR
02:48 9.1 °C 7.7 °C 1025.6 hPa North 5.6 km/h 5.6 km/h 91% 0 mm WeatherDisplay:10.37 W/m2 CLR
02:54 8.9 °C 7.6 °C 1025.6 hPa North 5.6 km/h 5.6 km/h 91% 0 mm WeatherDisplay:10.37 W/m2 CLR
02:59 8.9 °C 7.6 °C 1025.6 hPa North 5.6 km/h 5.6 km/h 91% 0 mm WeatherDisplay:10.37 W/m2 CLR
03:04 8.9 °C 7.6 °C 1025.3 hPa North 5.6 km/h 5.6 km/h 91% 0 mm WeatherDisplay:10.37 W/m2 CLR
03:09 8.9 °C 7.5 °C 1025.3 hPa North 5.6 km/h 5.6 km/h 91% 0 mm WeatherDisplay:10.37 W/m2 CLR
03:14 8.8 °C 7.4 °C 1025.3 hPa North 5.6 km/h 5.6 km/h 91% 0 mm WeatherDisplay:10.37 W/m2 CLR
03:19 8.8 °C 7.4 °C 1025.3 hPa North 5.6 km/h 5.6 km/h 91% 0 mm WeatherDisplay:10.37 W/m2 CLR
03:24 8.7 °C 7.3 °C 1025.3 hPa North 5.6 km/h 5.6 km/h 91% 0 mm WeatherDisplay:10.37 W/m2 CLR
03:29 8.7 °C 7.3 °C 1025.3 hPa North 5.6 km/h 5.6 km/h 91% 0 mm WeatherDisplay:10.37 W/m2 CLR
03:34 8.8 °C 7.4 °C 1025.3 hPa North 5.6 km/h 5.6 km/h 91% 0 mm WeatherDisplay:10.37 W/m2 CLR
03:39 8.8 °C 7.6 °C 1025.3 hPa North 5.6 km/h 5.6 km/h 92% 0 mm WeatherDisplay:10.37 W/m2 CLR
03:44 8.9 °C 7.7 °C 1025.3 hPa North 5.6 km/h 5.6 km/h 92% 0 mm WeatherDisplay:10.37 W/m2 CLR
03:49 8.9 °C 7.7 °C 1025.3 hPa North 5.6 km/h 5.6 km/h 92% 0 mm WeatherDisplay:10.37 W/m2 CLR
03:54 8.8 °C 7.4 °C 1025.3 hPa North 5.6 km/h 5.6 km/h 91% 0 mm WeatherDisplay:10.37 W/m2 CLR
03:59 8.8 °C 7.4 °C 1025.3 hPa North 5.6 km/h 5.6 km/h 91% 0 mm WeatherDisplay:10.37 W/m2 CLR
04:04 8.8 °C 7.6 °C 1025.3 hPa West 5.6 km/h 5.6 km/h 92% 0 mm WeatherDisplay:10.37 W/m2 CLR
04:09 8.7 °C 7.3 °C 1025.3 hPa West 5.6 km/h 5.6 km/h 91% 0 mm WeatherDisplay:10.37 W/m2 CLR
04:14 8.7 °C 7.3 °C 1025.3 hPa West 5.6 km/h 5.6 km/h 91% 0 mm WeatherDisplay:10.37 W/m2 CLR
04:20 8.6 °C 7.2 °C 1025.3 hPa West 5.6 km/h 5.6 km/h 91% 0 mm WeatherDisplay:10.37 W/m2 CLR
04:25 8.5 °C 7.1 °C 1025.3 hPa West 5.6 km/h 5.6 km/h 91% 0 mm WeatherDisplay:10.37 W/m2 CLR
04:30 8.5 °C 7.1 °C 1025.3 hPa West 5.6 km/h 5.6 km/h 91% 0 mm WeatherDisplay:10.37 W/m2 CLR
04:35 8.4 °C 7.1 °C 1025.3 hPa West 4.8 km/h 4.8 km/h 91% 0 mm WeatherDisplay:10.37 W/m2 CLR
04:40 8.4 °C 7 °C 1025.3 hPa West 4.8 km/h 4.8 km/h 91% 0 mm WeatherDisplay:10.37 W/m2 CLR
04:45 8.3 °C 6.9 °C 1025.3 hPa West 5.6 km/h 5.6 km/h 91% 0 mm WeatherDisplay:10.37 W/m2 CLR
04:50 8.3 °C 7.1 °C 1025.3 hPa West 4.8 km/h 4.8 km/h 92% 0 mm WeatherDisplay:10.37 W/m2 CLR
04:55 8.3 °C 6.9 °C 1025.3 hPa West 4.8 km/h 4.8 km/h 91% 0 mm WeatherDisplay:10.37 W/m2 CLR
05:00 8.2 °C 6.8 °C 1025.3 hPa West 4.8 km/h 4.8 km/h 91% 0 mm WeatherDisplay:10.37 W/m2 CLR
05:05 8.1 °C 6.7 °C 1025.6 hPa West 4.8 km/h 4.8 km/h 91% 0 mm WeatherDisplay:10.37 W/m2 CLR
05:10 8.1 °C 6.8 °C 1025.6 hPa West 4.8 km/h 4.8 km/h 92% 0 mm WeatherDisplay:10.37 W/m2 CLR
05:15 8.1 °C 6.8 °C 1025.6 hPa West 4.8 km/h 4.8 km/h 92% 0 mm WeatherDisplay:10.37 W/m2 CLR
05:20 8 °C 6.8 °C 1025.6 hPa West 4.8 km/h 4.8 km/h 92% 0 mm WeatherDisplay:10.37 W/m2 CLR
05:25 7.9 °C 6.7 °C 1025.6 hPa West 4.8 km/h 4.8 km/h 92% 0 mm WeatherDisplay:10.37 W/m2 CLR
05:30 7.8 °C 6.6 °C 1025.6 hPa West 4.8 km/h 4.8 km/h 92% 0 mm WeatherDisplay:10.37 W/m2 CLR
05:35 7.8 °C 6.6 °C 1025.6 hPa West 4.8 km/h 4.8 km/h 92% 0 mm WeatherDisplay:10.37 W/m2 CLR
05:40 7.8 °C 6.6 °C 1025.6 hPa West 4.8 km/h 4.8 km/h 92% 0 mm WeatherDisplay:10.37 W/m2 CLR
05:45 7.8 °C 6.6 °C 1025.6 hPa West 5.6 km/h 5.6 km/h 92% 0 mm WeatherDisplay:10.37 W/m2 CLR
05:50 7.8 °C 6.6 °C 1025.6 hPa West 4.8 km/h 4.8 km/h 92% 0 mm WeatherDisplay:10.37 W/m2 CLR
05:55 7.7 °C 6.5 °C 1025.6 hPa West 4.8 km/h 4.8 km/h 92% 0 mm WeatherDisplay:10.37 W/m2 CLR
06:00 7.7 °C 6.5 °C 1025.6 hPa West 4.8 km/h 4.8 km/h 92% 0 mm WeatherDisplay:10.37 W/m2 CLR
06:05 7.7 °C 6.4 °C 1025.6 hPa West 4.8 km/h 4.8 km/h 92% 0 mm WeatherDisplay:10.37 W/m2 CLR
06:10 7.7 °C 6.4 °C 1026 hPa West 4.8 km/h 4.8 km/h 92% 0 mm WeatherDisplay:10.37 W/m2 CLR
06:15 7.7 °C 6.4 °C 1026 hPa West 4.8 km/h 4.8 km/h 92% 0 mm WeatherDisplay:10.37 W/m2 CLR
06:20 7.6 °C 6.4 °C 1026 hPa West 5.6 km/h 5.6 km/h 92% 0 mm WeatherDisplay:10.37 W/m2 CLR
06:25 7.6 °C 6.4 °C 1026 hPa West 4.8 km/h 4.8 km/h 92% 0 mm WeatherDisplay:10.37 W/m2 CLR
06:30 7.6 °C 6.3 °C 1026 hPa West 4.8 km/h 4.8 km/h 92% 0 mm WeatherDisplay:10.37 W/m2 CLR
06:35 7.6 °C 6.3 °C 1026.3 hPa West 5.6 km/h 5.6 km/h 92% 0 mm WeatherDisplay:10.37 W/m2 CLR
06:40 7.6 °C 6.3 °C 1026.3 hPa West 5.6 km/h 5.6 km/h 92% 0 mm WeatherDisplay:10.37 W/m2 CLR
06:45 7.5 °C 6.3 °C 1026.3 hPa West 5.6 km/h 5.6 km/h 92% 0 mm WeatherDisplay:10.37 W/m2 CLR
06:50 7.4 °C 6.2 °C 1026.3 hPa West 5.6 km/h 5.6 km/h 92% 0 mm WeatherDisplay:10.37 W/m2 CLR
06:55 7.4 °C 6.2 °C 1026.3 hPa West 5.6 km/h 5.6 km/h 92% 0 mm WeatherDisplay:10.37 W/m2 CLR
07:00 7.4 °C 6.2 °C 1026.3 hPa West 5.6 km/h 5.6 km/h 92% 0 mm WeatherDisplay:10.37 W/m2 CLR
07:05 7.3 °C 6.1 °C 1026.3 hPa West 5.6 km/h 5.6 km/h 92% 0 mm WeatherDisplay:10.37 W/m2 CLR
07:10 7.3 °C 6.1 °C 1026.3 hPa West 5.6 km/h 5.6 km/h 92% 0 mm WeatherDisplay:10.37 W/m2 CLR
07:15 7.3 °C 6.1 °C 1026.3 hPa West 5.6 km/h 5.6 km/h 92% 0 mm WeatherDisplay:10.37 W/m2 CLR
07:20 7.3 °C 6.1 °C 1026.3 hPa West 5.6 km/h 5.6 km/h 92% 0 mm WeatherDisplay:10.37 W/m2 CLR
07:25 7.2 °C 6 °C 1026.3 hPa West 5.6 km/h 5.6 km/h 92% 0 mm WeatherDisplay:10.37 W/m2 CLR
07:30 7.2 °C 6 °C 1026.3 hPa West 5.6 km/h 5.6 km/h 92% 0 mm WeatherDisplay:10.37 W/m2 CLR
07:35 7.2 °C 5.9 °C 1026.3 hPa West 5.6 km/h 5.6 km/h 92% 0 mm WeatherDisplay:10.37 W/m2 CLR
07:40 7.1 °C 5.9 °C 1026.3 hPa West 5.6 km/h 5.6 km/h 92% 0 mm WeatherDisplay:10.37 W/m2 CLR
07:46 7.1 °C 5.8 °C 1026.3 hPa West 5.6 km/h 5.6 km/h 92% 0 mm WeatherDisplay:10.37 W/m2 CLR
07:51 7.1 °C 5.8 °C 1026.3 hPa West 5.6 km/h 5.6 km/h 92% 0 mm WeatherDisplay:10.37 W/m2 CLR
07:56 7.1 °C 5.8 °C 1026.3 hPa West 5.6 km/h 5.6 km/h 92% 0 mm WeatherDisplay:10.37 W/m2 CLR
08:01 7.1 °C 5.8 °C 1026.3 hPa West 5.6 km/h 5.6 km/h 92% 0 mm WeatherDisplay:10.37 W/m2 FEW
08:06 7.1 °C 5.8 °C 1026.3 hPa West 5.6 km/h 5.6 km/h 92% 0 mm WeatherDisplay:10.37 W/m2 FEW
08:11 7.1 °C 5.8 °C 1026.3 hPa West 5.6 km/h 5.6 km/h 92% 0 mm WeatherDisplay:10.37 W/m2 FEW
08:16 7.2 °C 6.1 °C 1026.3 hPa West 5.6 km/h 5.6 km/h 93% 0 mm WeatherDisplay:10.37 W/m2 FEW
08:21 7.2 °C 6.2 °C 1026.3 hPa West 5.6 km/h 5.6 km/h 93% 0 mm WeatherDisplay:10.37 W/m2 FEW
08:27 7.3 °C 6.2 °C 1026.6 hPa West 5.6 km/h 5.6 km/h 93% 0 mm WeatherDisplay:10.37 W/m2 FEW
08:32 7.4 °C 6.3 °C 1026.6 hPa West 5.6 km/h 5.6 km/h 93% 0 mm WeatherDisplay:10.37 W/m2 FEW
08:37 7.6 °C 6.5 °C 1026.6 hPa West 5.6 km/h 5.6 km/h 93% 0 mm WeatherDisplay:10.37 W/m2 FEW
08:42 7.7 °C 6.6 °C 1026.6 hPa West 5.6 km/h 5.6 km/h 93% 0 mm WeatherDisplay:10.37 W/m2 FEW
08:47 7.9 °C 6.8 °C 1026.6 hPa West 5.6 km/h 5.6 km/h 93% 0 mm WeatherDisplay:10.37 W/m2 FEW
08:52 8 °C 6.9 °C 1026.6 hPa West 5.6 km/h 5.6 km/h 93% 0 mm WeatherDisplay:10.37 W/m2 FEW
08:57 8.2 °C 7.2 °C 1027 hPa West 5.6 km/h 5.6 km/h 93% 0 mm WeatherDisplay:10.37 W/m2 FEW
09:02 8.4 °C 7.4 °C 1027 hPa West 5.6 km/h 5.6 km/h 93% 0 mm WeatherDisplay:10.37 W/m2 FEW
09:07 8.7 °C 7.6 °C 1027 hPa West 5.6 km/h 5.6 km/h 93% 0 mm WeatherDisplay:10.37 W/m2 FEW
09:12 8.9 °C 8.1 °C 1027 hPa West 5.6 km/h 5.6 km/h 94% 0 mm WeatherDisplay:10.37 W/m2 FEW
09:17 9.2 °C 8.3 °C 1027 hPa West 5.6 km/h 5.6 km/h 94% 0 mm WeatherDisplay:10.37 W/m2 FEW
09:22 9.4 °C 8.4 °C 1027.3 hPa West 5.6 km/h 5.6 km/h 94% 0 mm WeatherDisplay:10.37 W/m2 FEW
09:27 9.7 °C 8.8 °C 1027 hPa West 5.6 km/h 5.6 km/h 94% 0 mm WeatherDisplay:10.37 W/m2 FEW
09:32 10.1 °C 9.1 °C 1027 hPa West 5.6 km/h 5.6 km/h 94% 0 mm WeatherDisplay:10.37 W/m2 FEW
09:37 10.3 °C 9.4 °C 1027 hPa West 5.6 km/h 5.6 km/h 94% 0 mm WeatherDisplay:10.37 W/m2 FEW
09:42 10.7 °C 9.7 °C 1027 hPa West 5.6 km/h 5.6 km/h 94% 0 mm WeatherDisplay:10.37 W/m2 FEW
09:47 10.9 °C 10 °C 1027 hPa West 5.6 km/h 5.6 km/h 94% 0 mm WeatherDisplay:10.37 W/m2 FEW
09:52 11.3 °C 10.4 °C 1027 hPa West 5.6 km/h 5.6 km/h 94% 0 mm WeatherDisplay:10.37 W/m2 FEW
09:57 11.6 °C 10.7 °C 1027 hPa West 5.6 km/h 5.6 km/h 94% 0 mm WeatherDisplay:10.37 W/m2 FEW
10:03 11.9 °C 10.9 °C 1027 hPa West 5.6 km/h 5.6 km/h 94% 0 mm WeatherDisplay:10.37 W/m2 FEW
10:08 12.5 °C 10.9 °C 1027 hPa West 5.6 km/h 5.6 km/h 90% 0 mm WeatherDisplay:10.37 W/m2 FEW
10:13 12.9 °C 11 °C 1027 hPa West 5.6 km/h 5.6 km/h 88% 0 mm WeatherDisplay:10.37 W/m2 FEW
10:18 13.4 °C 10.9 °C 1027 hPa West 5.6 km/h 5.6 km/h 85% 0 mm WeatherDisplay:10.37 W/m2 FEW
10:23 14.1 °C 11.1 °C 1027 hPa West 5.6 km/h 5.6 km/h 82% 0 mm WeatherDisplay:10.37 W/m2 FEW
10:28 14.7 °C 11.1 °C 1027 hPa West 5.6 km/h 5.6 km/h 79% 0 mm WeatherDisplay:10.37 W/m2 FEW
10:33 15.2 °C 10.9 °C 1027 hPa West 5.6 km/h 5.6 km/h 76% 0 mm WeatherDisplay:10.37 W/m2 FEW
10:38 15.7 °C 11.5 °C 1027 hPa West 5.6 km/h 5.6 km/h 76% 0 mm WeatherDisplay:10.37 W/m2 FEW
10:43 16.4 °C 11.6 °C 1027 hPa West 5.6 km/h 5.6 km/h 73% 0 mm WeatherDisplay:10.37 W/m2 FEW
10:48 17 °C 11.3 °C 1027 hPa West 5.6 km/h 5.6 km/h 69% 0 mm WeatherDisplay:10.37 W/m2 FEW
10:53 17.3 °C 11.2 °C 1027 hPa West 5.6 km/h 5.6 km/h 67% 0 mm WeatherDisplay:10.37 W/m2 FEW
10:58 17.9 °C 11.9 °C 1027 hPa West 5.6 km/h 5.6 km/h 68% 0 mm WeatherDisplay:10.37 W/m2 FEW
11:03 18.2 °C 11.6 °C 1027 hPa West 5.6 km/h 5.6 km/h 65% 0 mm WeatherDisplay:10.37 W/m2 FEW
11:08 18.7 °C 11.6 °C 1027 hPa West 5.6 km/h 5.6 km/h 63% 0 mm WeatherDisplay:10.37 W/m2 FEW
11:13 19.3 °C 11.4 °C 1027 hPa West 5.6 km/h 5.6 km/h 60% 0 mm WeatherDisplay:10.37 W/m2 FEW
11:18 19.9 °C 11.6 °C 1027 hPa West 5.6 km/h 5.6 km/h 59% 0 mm WeatherDisplay:10.37 W/m2 FEW
11:23 20.3 °C 11.8 °C 1026.6 hPa West 5.6 km/h 5.6 km/h 58% 0 mm WeatherDisplay:10.37 W/m2 FEW
11:29 20.6 °C 11.8 °C 1027 hPa West 5.6 km/h 5.6 km/h 57% 0 mm WeatherDisplay:10.37 W/m2 FEW
11:34 21 °C 11.3 °C 1027 hPa West 5.6 km/h 5.6 km/h 54% 0 mm WeatherDisplay:10.37 W/m2 FEW
11:39 21.4 °C 11.4 °C 1026.6 hPa West 5.6 km/h 5.6 km/h 53% 0 mm WeatherDisplay:10.37 W/m2 FEW
11:44 21.7 °C 10.5 °C 1026.6 hPa West 5.6 km/h 5.6 km/h 49% 0 mm WeatherDisplay:10.37 W/m2 FEW
11:49 21.9 °C 11.1 °C 1026.6 hPa West 5.6 km/h 5.6 km/h 50% 0 mm WeatherDisplay:10.37 W/m2 FEW
11:54 21.9 °C 11.1 °C 1026.6 hPa West 5.6 km/h 5.6 km/h 50% 0 mm WeatherDisplay:10.37 W/m2 FEW
11:59 21.6 °C 10.7 °C 1026.6 hPa West 5.6 km/h 5.6 km/h 50% 0 mm WeatherDisplay:10.37 W/m2 FEW
12:04 21.3 °C 10.4 °C 1026.6 hPa West 5.6 km/h 5.6 km/h 50% 0 mm WeatherDisplay:10.37 W/m2 SCT
12:09 21 °C 9.3 °C 1026.6 hPa West 5.6 km/h 5.6 km/h 47% 0 mm WeatherDisplay:10.37 W/m2 SCT
12:14 20.8 °C 9.7 °C 1026.6 hPa West 5.6 km/h 5.6 km/h 49% 0 mm WeatherDisplay:10.37 W/m2 SCT
12:19 20.8 °C 10.3 °C 1026.3 hPa West 5.6 km/h 5.6 km/h 51% 0 mm WeatherDisplay:10.37 W/m2 SCT
12:24 21.1 °C 11.4 °C 1026.3 hPa West 5.6 km/h 5.6 km/h 54% 0 mm WeatherDisplay:10.37 W/m2 SCT
12:29 21.2 °C 10 °C 1026.3 hPa West 5.6 km/h 5.6 km/h 49% 0 mm WeatherDisplay:10.37 W/m2 SCT
12:34 21.2 °C 10.1 °C 1026.3 hPa West 5.6 km/h 5.6 km/h 49% 0 mm WeatherDisplay:10.37 W/m2 SCT
12:39 21.2 °C 9.8 °C 1026.3 hPa West 5.6 km/h 5.6 km/h 48% 0 mm WeatherDisplay:10.37 W/m2 SCT
12:45 21.3 °C 10.4 °C 1026 hPa West 5.6 km/h 5.6 km/h 50% 0 mm WeatherDisplay:10.37 W/m2 SCT
12:50 21.4 °C 8.3 °C 1026 hPa West 5.6 km/h 5.6 km/h 43% 0 mm WeatherDisplay:10.37 W/m2 SCT
12:55 21.5 °C 7.3 °C 1026 hPa West 5.6 km/h 5.6 km/h 40% 0 mm WeatherDisplay:10.37 W/m2 SCT
13:00 21.6 °C 7.4 °C 1026 hPa West 4.8 km/h 4.8 km/h 40% 0 mm WeatherDisplay:10.37 W/m2 SCT
13:05 21.7 °C 7.2 °C 1026 hPa West 4.8 km/h 4.8 km/h 39% 0 mm WeatherDisplay:10.37 W/m2 SCT
13:10 21.8 °C 8.3 °C 1025.6 hPa West 4.8 km/h 4.8 km/h 42% 0 mm WeatherDisplay:10.37 W/m2 SCT
13:15 21.8 °C 7.9 °C 1025.6 hPa West 4.8 km/h 4.8 km/h 41% 0 mm WeatherDisplay:10.37 W/m2 SCT
13:20 22 °C 7.8 °C 1025.6 hPa West 4.8 km/h 4.8 km/h 40% 0 mm WeatherDisplay:10.37 W/m2 SCT
13:25 22.2 °C 7.6 °C 1025.6 hPa West 4.8 km/h 4.8 km/h 39% 0 mm WeatherDisplay:10.37 W/m2 SCT
13:30 22.2 °C 6.4 °C 1025.6 hPa West 4.8 km/h 4.8 km/h 36% 0 mm WeatherDisplay:10.37 W/m2 SCT
13:35 22.3 °C 7.3 °C 1025.3 hPa West 5.6 km/h 5.6 km/h 38% 0 mm WeatherDisplay:10.37 W/m2 SCT
13:40 22.4 °C 7.7 °C 1025.3 hPa West 5.6 km/h 5.6 km/h 39% 0 mm WeatherDisplay:10.37 W/m2 SCT
13:45 22.6 °C 8.3 °C 1025.3 hPa West 5.6 km/h 5.6 km/h 40% 0 mm WeatherDisplay:10.37 W/m2 SCT
13:50 22.9 °C 7.8 °C 1024.9 hPa West 5.6 km/h 5.6 km/h 38% 0 mm WeatherDisplay:10.37 W/m2 SCT
13:55 23.3 °C 8.6 °C 1024.9 hPa West 5.6 km/h 5.6 km/h 39% 0 mm WeatherDisplay:10.37 W/m2 SCT
14:00 23.8 °C 8.2 °C 1024.9 hPa West 5.6 km/h 5.6 km/h 37% 0 mm WeatherDisplay:10.37 W/m2 SCT
14:05 24.1 °C 7.3 °C 1024.6 hPa SW 5.6 km/h 5.6 km/h 34% 0 mm WeatherDisplay:10.37 W/m2 SCT
14:10 24 °C 7.2 °C 1024.6 hPa SW 5.6 km/h 5.6 km/h 34% 0 mm WeatherDisplay:10.37 W/m2 SCT
14:16 24.1 °C 6.8 °C 1024.6 hPa SW 5.6 km/h 5.6 km/h 33% 0 mm WeatherDisplay:10.37 W/m2 SCT
14:21 24.2 °C 6.9 °C 1024.6 hPa SW 5.6 km/h 5.6 km/h 33% 0 mm WeatherDisplay:10.37 W/m2 SCT
14:26 24.2 °C 7.8 °C 1024.3 hPa SW 5.6 km/h 5.6 km/h 35% 0 mm WeatherDisplay:10.37 W/m2 SCT
14:31 24.3 °C 6.5 °C 1024.3 hPa SW 5.6 km/h 5.6 km/h 32% 0 mm WeatherDisplay:10.37 W/m2 SCT
14:36 24.5 °C 6.7 °C 1024.3 hPa SW 5.6 km/h 5.6 km/h 32% 0 mm WeatherDisplay:10.37 W/m2 SCT
14:41 24.5 °C 8.1 °C 1023.9 hPa SW 5.6 km/h 5.6 km/h 35% 0 mm WeatherDisplay:10.37 W/m2 SCT
14:46 24.6 °C 8.1 °C 1023.9 hPa SW 5.6 km/h 5.6 km/h 35% 0 mm WeatherDisplay:10.37 W/m2 SCT
14:51 24.7 °C 7.8 °C 1023.9 hPa SW 5.6 km/h 5.6 km/h 34% 0 mm WeatherDisplay:10.37 W/m2 SCT
14:56 24.9 °C 7.9 °C 1023.9 hPa SW 5.6 km/h 5.6 km/h 34% 0 mm WeatherDisplay:10.37 W/m2 SCT
15:01 25 °C 5.2 °C 1023.9 hPa SE 5.6 km/h 5.6 km/h 28% 0 mm WeatherDisplay:10.37 W/m2 SCT
15:06 24.9 °C 5.7 °C 1023.9 hPa SE 5.6 km/h 5.6 km/h 29% 0 mm WeatherDisplay:10.37 W/m2 SCT
15:11 24.8 °C 5.6 °C 1023.9 hPa SE 5.6 km/h 5.6 km/h 29% 0 mm WeatherDisplay:10.37 W/m2 SCT
15:16 24.7 °C 5.9 °C 1023.6 hPa SE 5.6 km/h 5.6 km/h 30% 0 mm WeatherDisplay:10.37 W/m2 SCT
15:22 24.5 °C 7.6 °C 1023.6 hPa SE 5.6 km/h 5.6 km/h 34% 0 mm WeatherDisplay:10.37 W/m2 SCT
15:27 24.4 °C 5.7 °C 1023.6 hPa SE 5.6 km/h 5.6 km/h 30% 0 mm WeatherDisplay:10.37 W/m2 SCT
15:32 24.3 °C 6.6 °C 1023.2 hPa SE 5.6 km/h 5.6 km/h 32% 0 mm WeatherDisplay:10.37 W/m2 SCT
15:37 24.1 °C 7.7 °C 1023.2 hPa SE 5.6 km/h 5.6 km/h 35% 0 mm WeatherDisplay:10.37 W/m2 SCT
15:42 23.9 °C 8.3 °C 1023.2 hPa SE 5.6 km/h 5.6 km/h 37% 0 mm WeatherDisplay:10.37 W/m2 SCT
15:47 23.9 °C 4.8 °C 1023.2 hPa SE 5.6 km/h 5.6 km/h 29% 0 mm WeatherDisplay:10.37 W/m2 SCT
15:52 24 °C 6.3 °C 1023.2 hPa SE 5.6 km/h 5.6 km/h 32% 0 mm WeatherDisplay:10.37 W/m2 SCT
15:57 24.1 °C 5.4 °C 1023.2 hPa SE 5.6 km/h 5.6 km/h 30% 0 mm WeatherDisplay:10.37 W/m2 SCT
16:02 24.1 °C 5.9 °C 1023.2 hPa SE 5.6 km/h 5.6 km/h 31% 0 mm WeatherDisplay:10.37 W/m2 SCT
16:07 24.2 °C 5 °C 1023.2 hPa SE 5.6 km/h 5.6 km/h 29% 0 mm WeatherDisplay:10.37 W/m2 SCT
16:12 23.9 °C 6.2 °C 1023.2 hPa SE 5.6 km/h 5.6 km/h 32% 0 mm WeatherDisplay:10.37 W/m2 SCT
16:17 23.8 °C 6.9 °C 1023.2 hPa SE 5.6 km/h 5.6 km/h 34% 0 mm WeatherDisplay:10.37 W/m2 SCT
16:22 23.6 °C 7.7 °C 1023.2 hPa SE 5.6 km/h 5.6 km/h 36% 0 mm WeatherDisplay:10.37 W/m2 SCT
16:27 23.6 °C 7.2 °C 1022.9 hPa SE 5.6 km/h 5.6 km/h 35% 0 mm WeatherDisplay:10.37 W/m2 SCT
16:32 23.6 °C 8.4 °C 1023.2 hPa SE 5.6 km/h 5.6 km/h 38% 0 mm WeatherDisplay:10.37 W/m2 SCT
16:37 23.5 °C 8.3 °C 1022.9 hPa SE 5.6 km/h 5.6 km/h 38% 0 mm WeatherDisplay:10.37 W/m2 SCT
16:42 23.2 °C 8.1 °C 1022.9 hPa SE 5.6 km/h 5.6 km/h 38% 0 mm WeatherDisplay:10.37 W/m2 SCT
16:47 23.1 °C 7.6 °C 1022.9 hPa SE 5.6 km/h 5.6 km/h 37% 0 mm WeatherDisplay:10.37 W/m2 SCT
16:52 23 °C 7.9 °C 1022.9 hPa SE 5.6 km/h 5.6 km/h 38% 0 mm WeatherDisplay:10.37 W/m2 SCT
16:57 22.8 °C 7.7 °C 1022.9 hPa SE 5.6 km/h 5.6 km/h 38% 0 mm WeatherDisplay:10.37 W/m2 SCT
17:03 22.6 °C 7.9 °C 1022.9 hPa SE 7.4 km/h 7.4 km/h 39% 0 mm WeatherDisplay:10.37 W/m2 SCT
17:08 22.6 °C 7.6 °C 1022.9 hPa SE 7.4 km/h 7.4 km/h 38% 0 mm WeatherDisplay:10.37 W/m2 SCT
17:13 22.6 °C 7.9 °C 1022.9 hPa SE 7.4 km/h 7.4 km/h 39% 0 mm WeatherDisplay:10.37 W/m2 SCT
17:18 22.5 °C 8.2 °C 1022.6 hPa SE 7.4 km/h 7.4 km/h 40% 0 mm WeatherDisplay:10.37 W/m2 SCT
17:23 22.3 °C 8 °C 1022.6 hPa SE 7.4 km/h 7.4 km/h 40% 0 mm WeatherDisplay:10.37 W/m2 SCT
17:28 22.1 °C 8.2 °C 1022.6 hPa SE 7.4 km/h 7.4 km/h 41% 0 mm WeatherDisplay:10.37 W/m2 SCT
17:33 22 °C 8.8 °C 1022.6 hPa SE 7.4 km/h 7.4 km/h 43% 0 mm WeatherDisplay:10.37 W/m2 SCT
17:38 21.9 °C 8.8 °C 1022.6 hPa SE 7.4 km/h 7.4 km/h 43% 0 mm WeatherDisplay:10.37 W/m2 SCT
17:43 21.8 °C 9.1 °C 1022.6 hPa SE 7.4 km/h 7.4 km/h 44% 0 mm WeatherDisplay:10.37 W/m2 SCT
17:48 21.8 °C 9 °C 1022.6 hPa SE 7.4 km/h 7.4 km/h 44% 0 mm WeatherDisplay:10.37 W/m2 SCT
17:53 21.6 °C 9.2 °C 1022.6 hPa SE 7.4 km/h 7.4 km/h 45% 0 mm WeatherDisplay:10.37 W/m2 SCT
17:58 21.4 °C 9.3 °C 1022.6 hPa SE 7.4 km/h 7.4 km/h 46% 0 mm WeatherDisplay:10.37 W/m2 SCT
18:03 21.3 °C 9.5 °C 1022.6 hPa SE 11.1 km/h 11.1 km/h 47% 0 mm WeatherDisplay:10.37 W/m2 SCT
18:08 21.1 °C 9.7 °C 1022.6 hPa SE 11.1 km/h 11.1 km/h 48% 0 mm WeatherDisplay:10.37 W/m2 SCT
18:13 20.9 °C 10.4 °C 1022.6 hPa SE 11.1 km/h 11.1 km/h 51% 0 mm WeatherDisplay:10.37 W/m2 SCT
18:18 20.7 °C 10.2 °C 1022.6 hPa SE 11.1 km/h 11.1 km/h 51% 0 mm WeatherDisplay:10.37 W/m2 SCT
18:23 20.4 °C 10.3 °C 1022.6 hPa SE 11.1 km/h 11.1 km/h 52% 0 mm WeatherDisplay:10.37 W/m2 SCT
18:28 20.3 °C 10.4 °C 1022.6 hPa SE 11.1 km/h 11.1 km/h 53% 0 mm WeatherDisplay:10.37 W/m2 SCT
18:33 20.1 °C 10.2 °C 1022.6 hPa SE 11.1 km/h 11.1 km/h 53% 0 mm WeatherDisplay:10.37 W/m2 SCT
18:38 19.9 °C 10.1 °C 1022.6 hPa SE 11.1 km/h 11.1 km/h 53% 0 mm WeatherDisplay:10.37 W/m2 SCT
18:43 19.7 °C 10.2 °C 1022.9 hPa SE 11.1 km/h 11.1 km/h 54% 0 mm WeatherDisplay:10.37 W/m2 SCT
18:48 19.5 °C 9.7 °C 1022.9 hPa SE 11.1 km/h 11.1 km/h 53% 0 mm WeatherDisplay:10.37 W/m2 SCT
18:54 19.3 °C 10 °C 1022.9 hPa SE 11.1 km/h 11.1 km/h 55% 0 mm WeatherDisplay:10.37 W/m2 SCT
18:59 19 °C 10.3 °C 1022.9 hPa SE 11.1 km/h 11.1 km/h 57% 0 mm WeatherDisplay:10.37 W/m2 SCT
19:04 18.7 °C 10.3 °C 1022.9 hPa SE 11.1 km/h 11.1 km/h 58% 0 mm WeatherDisplay:10.37 W/m2 SCT
19:09 18.4 °C 10.3 °C 1022.9 hPa SE 11.1 km/h 11.1 km/h 59% 0 mm WeatherDisplay:10.37 W/m2 SCT
19:14 18.1 °C 9.9 °C 1022.9 hPa SE 11.1 km/h 11.1 km/h 59% 0 mm WeatherDisplay:10.37 W/m2 SCT
19:19 17.8 °C 9.9 °C 1022.9 hPa SE 11.1 km/h 11.1 km/h 60% 0 mm WeatherDisplay:10.37 W/m2 SCT
19:24 17.6 °C 9.7 °C 1022.9 hPa SE 11.1 km/h 11.1 km/h 60% 0 mm WeatherDisplay:10.37 W/m2 SCT
19:29 17.3 °C 10 °C 1022.9 hPa SE 11.1 km/h 11.1 km/h 62% 0 mm WeatherDisplay:10.37 W/m2 SCT
19:34 17.1 °C 10 °C 1023.2 hPa SE 11.1 km/h 11.1 km/h 63% 0 mm WeatherDisplay:10.37 W/m2 SCT
19:39 16.8 °C 10.4 °C 1023.2 hPa SE 11.1 km/h 11.1 km/h 66% 0 mm WeatherDisplay:10.37 W/m2 SCT
19:44 16.6 °C 10.4 °C 1023.2 hPa SE 11.1 km/h 11.1 km/h 67% 0 mm WeatherDisplay:10.37 W/m2 SCT
19:49 16.4 °C 10.2 °C 1023.2 hPa SE 11.1 km/h 11.1 km/h 67% 0 mm WeatherDisplay:10.37 W/m2 SCT
19:54 16.2 °C 10.3 °C 1023.2 hPa SE 11.1 km/h 11.1 km/h 68% 0 mm WeatherDisplay:10.37 W/m2 SCT
19:59 16.1 °C 10.4 °C 1023.6 hPa SE 11.1 km/h 11.1 km/h 69% 0 mm WeatherDisplay:10.37 W/m2 SCT
20:04 15.9 °C 10.7 °C 1023.6 hPa SE 11.1 km/h 11.1 km/h 71% 0 mm WeatherDisplay:10.37 W/m2 SCT
20:09 15.8 °C 10.7 °C 1023.6 hPa SE 11.1 km/h 11.1 km/h 72% 0 mm WeatherDisplay:10.37 W/m2 SCT
20:14 15.6 °C 11 °C 1023.6 hPa SE 11.1 km/h 11.1 km/h 74% 0 mm WeatherDisplay:10.37 W/m2 SCT
20:19 15.4 °C 11.1 °C 1023.6 hPa SE 11.1 km/h 11.1 km/h 75% 0 mm WeatherDisplay:10.37 W/m2 SCT
20:24 15.3 °C 10.9 °C 1023.6 hPa SE 11.1 km/h 11.1 km/h 75% 0 mm WeatherDisplay:10.37 W/m2 SCT
20:29 15.2 °C 10.8 °C 1023.6 hPa SE 11.1 km/h 11.1 km/h 75% 0 mm WeatherDisplay:10.37 W/m2 SCT
20:34 15 °C 10.8 °C 1023.6 hPa SE 11.1 km/h 11.1 km/h 76% 0 mm WeatherDisplay:10.37 W/m2 SCT
20:39 14.9 °C 10.9 °C 1023.6 hPa SE 11.1 km/h 11.1 km/h 77% 0 mm WeatherDisplay:10.37 W/m2 SCT
20:44 14.8 °C 10.8 °C 1023.6 hPa SE 11.1 km/h 11.1 km/h 77% 0 mm WeatherDisplay:10.37 W/m2 SCT
20:49 14.7 °C 10.7 °C 1023.6 hPa SE 11.1 km/h 11.1 km/h 77% 0 mm WeatherDisplay:10.37 W/m2 SCT
20:54 14.6 °C 10.6 °C 1023.6 hPa SE 11.1 km/h 11.1 km/h 77% 0 mm WeatherDisplay:10.37 W/m2 SCT
21:00 14.5 °C 10.7 °C 1023.9 hPa SE 11.1 km/h 11.1 km/h 78% 0 mm WeatherDisplay:10.37 W/m2 SCT
21:05 14.4 °C 10.6 °C 1023.9 hPa SE 11.1 km/h 11.1 km/h 78% 0 mm WeatherDisplay:10.37 W/m2 SCT
21:10 14.3 °C 10.6 °C 1023.9 hPa SE 11.1 km/h 11.1 km/h 78% 0 mm WeatherDisplay:10.37 W/m2 SCT
21:15 14.2 °C 10.4 °C 1023.6 hPa SE 11.1 km/h 11.1 km/h 78% 0 mm WeatherDisplay:10.37 W/m2 SCT
21:20 14.1 °C 10.5 °C 1023.9 hPa SE 11.3 km/h 11.3 km/h 79% 0 mm WeatherDisplay:10.37 W/m2 SCT
21:25 14 °C 10.4 °C 1023.9 hPa SE 11.3 km/h 11.3 km/h 79% 0 mm WeatherDisplay:10.37 W/m2 SCT
21:30 13.9 °C 10.5 °C 1023.9 hPa SE 11.1 km/h 11.1 km/h 80% 0 mm WeatherDisplay:10.37 W/m2 SCT
21:35 13.8 °C 10.6 °C 1023.9 hPa SE 11.3 km/h 11.3 km/h 81% 0 mm WeatherDisplay:10.37 W/m2 SCT
21:40 13.7 °C 10.3 °C 1023.9 hPa SE 11.3 km/h 11.3 km/h 80% 0 mm WeatherDisplay:10.37 W/m2 SCT
21:45 13.6 °C 10.2 °C 1023.9 hPa SE 11.3 km/h 11.3 km/h 80% 0 mm WeatherDisplay:10.37 W/m2 SCT
21:50 13.6 °C 10.6 °C 1023.9 hPa SE 11.3 km/h 11.3 km/h 82% 0 mm WeatherDisplay:10.37 W/m2 SCT
21:55 13.5 °C 10.5 °C 1024.3 hPa SE 11.3 km/h 11.3 km/h 82% 0 mm WeatherDisplay:10.37 W/m2 SCT
22:00 13.4 °C 10.4 °C 1024.3 hPa SE 11.3 km/h 11.3 km/h 82% 0 mm WeatherDisplay:10.37 W/m2 SCT
22:05 13.3 °C 10.3 °C 1024.3 hPa SE 11.3 km/h 11.3 km/h 82% 0 mm WeatherDisplay:10.37 W/m2 SCT
22:10 13.3 °C 10.3 °C 1024.3 hPa SE 11.3 km/h 11.3 km/h 82% 0 mm WeatherDisplay:10.37 W/m2 SCT
22:15 13.2 °C 10.2 °C 1024.3 hPa SE 11.3 km/h 11.3 km/h 82% 0 mm WeatherDisplay:10.37 W/m2 SCT
22:20 13.1 °C 10.3 °C 1024.3 hPa SE 11.3 km/h 11.3 km/h 83% 0 mm WeatherDisplay:10.37 W/m2 SCT
22:25 13.1 °C 10.1 °C 1024.3 hPa SE 11.1 km/h 11.1 km/h 82% 0 mm WeatherDisplay:10.37 W/m2 SCT
22:30 13 °C 10.2 °C 1024.3 hPa SE 11.3 km/h 11.3 km/h 83% 0 mm WeatherDisplay:10.37 W/m2 SCT
22:35 12.9 °C 10.1 °C 1024.3 hPa SE 11.1 km/h   83% 0 mm WeatherDisplay:10.37 W/m2 SCT
22:40 12.8 °C 10 °C 1024.3 hPa SE 11.1 km/h 11.1 km/h 83% 0 mm WeatherDisplay:10.37 W/m2 SCT
22:45 12.7 °C 9.9 °C 1024.3 hPa SE 11.1 km/h 11.1 km/h 83% 0 mm WeatherDisplay:10.37 W/m2 SCT
22:50 12.7 °C 10.1 °C 1024.3 hPa SE 11.1 km/h 11.1 km/h 84% 0 mm WeatherDisplay:10.37 W/m2 SCT
22:55 12.7 °C 10.1 °C 1024.3 hPa SE 11.1 km/h 11.1 km/h 84% 0 mm WeatherDisplay:10.37 W/m2 SCT
23:00 12.6 °C 10.2 °C 1024.3 hPa SE 11.1 km/h 11.1 km/h 85% 0 mm WeatherDisplay:10.37 W/m2 SCT
23:05 12.6 °C 10.2 °C 1024.3 hPa SE 11.1 km/h 11.1 km/h 85% 0 mm WeatherDisplay:10.37 W/m2 SCT
23:10 12.6 °C 10.2 °C 1024.3 hPa SE 11.1 km/h 11.1 km/h 85% 0 mm WeatherDisplay:10.37 W/m2 SCT
23:16 12.6 °C 10.2 °C 1024.3 hPa SE 11.1 km/h 11.1 km/h 85% 0 mm WeatherDisplay:10.37 W/m2 SCT
23:19 12.6 °C 10.2 °C 1024.3 hPa SE 11.1 km/h 11.1 km/h 85% 0 mm WeatherDisplay:10.37 W/m2 SCT
23:21 12.6 °C 10.2 °C 1024.3 hPa SE 11.1 km/h 11.1 km/h 85% 0 mm WeatherDisplay:10.37 W/m2 SCT
23:24 12.6 °C 10.2 °C 1024.3 hPa SE 11.1 km/h 11.1 km/h 85% 0 mm WeatherDisplay:10.37 W/m2 SCT
23:26 12.6 °C 10.2 °C 1024.3 hPa SE 11.1 km/h 11.1 km/h 85% 0 mm WeatherDisplay:10.37 W/m2 SCT
23:32 12.6 °C 10.3 °C 1024.3 hPa SE 11.1 km/h 11.1 km/h 86% 0 mm WeatherDisplay:10.37 W/m2 SCT
23:37 12.6 °C 10.1 °C 1024.3 hPa SE 11.1 km/h 11.1 km/h 85% 0 mm WeatherDisplay:10.37 W/m2 SCT
23:42 12.6 °C 10.2 °C 1024.3 hPa SE 11.1 km/h 11.1 km/h 85% 0 mm WeatherDisplay:10.37 W/m2 SCT
23:47 12.6 °C 10.2 °C 1024.3 hPa SE 11.1 km/h 11.1 km/h 85% 0 mm WeatherDisplay:10.37 W/m2 SCT
23:52 12.6 °C 10.2 °C 1024.3 hPa SE 11.1 km/h 11.1 km/h 85% 0 mm WeatherDisplay:10.37 W/m2 SCT
23:57 12.6 °C 9.9 °C 1024.3 hPa SE 11.1 km/h 11.1 km/h 84% 0 mm WeatherDisplay:10.37 W/m2 SCT
Piedmont Bend
Compliments of Weather Underground - 4 mb